Tracking 19832 objects as of 24-Aug-2019
HD Live streaming from Space Station
objects crossing your sky now

COSMOS 2251 DEB

Track COSMOS 2251 DEB now!
10-day predictions


NORAD ID: 33759
Int'l Code: 1993-036G
Perigee: 717.8 km
Apogee: 748.5 km
Inclination: 74.0 °
Period: 99.3 minutes
Semi major axis: 7104 km
RCS: 0.079 m2 (small)
Launch date: June 16, 1993
Source: Commonwealth of Independent States (former USSR) (CIS)
Launch site: PLESETSK MISSILE AND SPACE COMPLEX (PKMTR)

Note: This is SATELLITE DEBRIS
aabbcc
Your satellite tracking list
Your tracking list is empty




NASA's NSSDC Master Catalog

Two Line Element Set (TLE):
1 33759U 93036G   19235.72998375  .00000808  00000-0  21568-3 0  9999
2 33759  74.0199  90.2088 0021637  39.5076  29.9588 14.49894453553976
Source of the keplerian elements: AFSPC